Temp
-3 -3 -3 -4 -4 -3 -3 -4 -4 -4 -4 -4 -4 -4 -4 -4 -4 -5 -5 -5 -6 -6 -6 -6 -6 -6 -7 -7 -7 -8 -8 -8 -8 -9 -9 -9 -8 -9 -8 -8 -7 -6 -7 -7 -7 -7 -7 -7 -7
-3 -3 -4 -4 -4 -3 -3 -4 -4 -4 -4 -4 -4 -4 -4 -4 -4 -5 -5 -5 -6 -6 -6 -6 -6 -7 -7 -8 -7 -7 -7 -8 -8 -8 -9 -8 -8 -8 -8 -8 -7 -6 -6 -6 -7 -7 -7 -7 -7
-2 -3 -4 -3 -3 -3 -3 -3 -4 -4 -4 -4 -4 -4 -4 -4 -4 -4 -5 -5 -6 -6 -6 -6 -6 -7 -7 -8 -7 -7 -7 -7 -8 -8 -9 -8 -8 -8 -8 -8 -7 -6 -6 -6 -7 -7 -7 -7 -7
-3 -3 -3 -3 -3 -4 -4 -4 -4 -3 -4 -3 -4 -4 -4 -4 -4 -4 -5 -5 -5 -5 -6 -6 -7 -7 -7 -8 -8 -7 -7 -7 -8 -8 -8 -8 -8 -8 -8 -7 -7 -6 -6 -6 -6 -6 -6 -7 -7
-4 -4 -3 -3 -4 -4 -4 -4 -4 -3 -4 -4 -4 -4 -4 -4 -4 -4 -5 -5 -5 -5 -6 -6 -7 -7 -8 -8 -8 -8 -8 -8 -8 -8 -8 -8 -8 -8 -8 -8 -7 -6 -6 -6 -6 -6 -6 -6 -7
-4 -3 -4 -4 -3 -3 -4 -4 -4 -4 -3 -4 -4 -4 -4 -4 -4 -4 -5 -5 -4 -5 -6 -6 -7 -7 -7 -7 -7 -8 -8 -8 -8 -8 -8 -8 -7 -7 -8 -7 -7 -6 -6 -6 -5 -5 -6 -6 -6
-3 -3 -3 -3 -4 -4 -4 -4 -4 -4 -4 -4 -4 -4 -4 -4 -4 -4 -4 -5 -4 -5 -6 -6 -7 -7 -7 -7 -7 -8 -8 -8 -8 -7 -8 -7 -7 -7 -8 -7 -7 -7 -7 -6 -5 -6 -6 -6 -6
-4 -3 -3 -4 -4 -4 -4 -4 -5 -5 -4 -4 -4 -4 -4 -4 -4 -4 -4 -4 -4 -5 -6 -6 -6 -6 -6 -7 -7 -8 -8 -8 -7 -7 -7 -7 -7 -7 -8 -9 -8 -8 -8 -8 -7 -7 -7 -7 -7
-4 -4 -3 -3 -4 -3 -4 -4 -4 -4 -4 -4 -4 -4 -4 -4 -4 -4 -4 -4 -4 -5 -5 -6 -6 -6 -6 -7 -7 -8 -8 -7 -7 -8 -7 -7 -7 -7 -7 -8 -8 -8 -8 -8 -7 -7 -7 -6 -7
-4 -4 -4 -4 -4 -4 -4 -4 -4 -4 -4 -4 -4 -4 -4 -4 -4 -4 -4 -4 -4 -5 -5 -6 -6 -6 -6 -6 -7 -7 -7 -8 -8 -8 -6 -7 -7 -7 -7 -7 -6 -6 -7 -7 -8 -8 -7 -7 -7
-5 -5 -4 -4 -4 -4 -4 -4 -4 -4 -3 -4 -4 -4 -4 -4 -4 -4 -4 -4 -4 -4 -5 -5 -6 -6 -6 -6 -6 -7 -6 -7 -7 -7 -6 -6 -6 -6 -6 -6 -6 -5 -6 -7 -7 -7 -7 -6 -6
-6 -6 -5 -5 -4 -5 -4 -4 -4 -4 -3 -3 -4 -4 -4 -4 -4 -4 -4 -4 -4 -4 -5 -5 -5 -6 -5 -6 -6 -6 -6 -6 -5 -6 -6 -6 -7 -6 -6 -5 -5 -5 -6 -6 -6 -6 -6 -6 -6
-7 -4 -5 -5 -4 -4 -4 -5 -4 -4 -4 -4 -4 -4 -4 -4 -4 -4 -4 -4 -4 -4 -4 -5 -5 -5 -5 -5 -5 -6 -6 -6 -5 -6 -6 -6 -6 -6 -6 -6 -5 -5 -6 -6 -6 -5 -5 -5 -6
-7 -6 -5 -4 -5 -5 -4 -4 -5 -4 -4 -4 -4 -4 -4 -4 -4 -5 -5 -4 -4 -4 -4 -4 -5 -5 -5 -5 -5 -5 -6 -6 -6 -6 -6 -5 -6 -6 -6 -6 -6 -6 -6 -6 -6 -5 -5 -6 -6
-7 -5 -5 -6 -7 -5 -5 -6 -4 -5 -4 -4 -4 -4 -4 -4 -4 -5 -5 -5 -5 -4 -4 -4 -5 -5 -5 -5 -5 -5 -5 -6 -6 -5 -5 -5 -5 -5 -5 -5 -6 -6 -6 -5 -5 -6 -6 -6 -6
-8 -7 -5 -5 -5 -5 -5 -5 -5 -5 -4 -4 -4 -4 -4 -4 -5 -5 -5 -5 -5 -4 -4 -4 -4 -5 -5 -5 -5 -5 -5 -5 -5 -5 -5 -5 -5 -5 -5 -5 -5 -6 -6 -6 -6 -6 -6 -6 -6
-8 -8 -6 -5 -5 -4 -5 -5 -5 -6 -5 -4 -4 -4 -4 -4 -5 -5 -5 -5 -5 -5 -4 -4 -4 -4 -5 -5 -5 -5 -4 -5 -5 -5 -5 -5 -5 -5 -5 -5 -5 -6 -6 -6 -6 -6 -6 -6 -6
-7 -7 -7 -7 -7 -5 -6 -6 -7 -6 -5 -5 -5 -4 -4 -4 -5 -5 -5 -5 -4 -4 -4 -4 -4 -4 -5 -5 -5 -5 -4 -4 -5 -5 -5 -5 -5 -5 -5 -5 -5 -5 -6 -6 -6 -6 -6 -6 -6
-8 -6 -7 -7 -7 -7 -6 -5 -6 -7 -6 -6 -6 -5 -5 -4 -4 -4 -4 -5 -5 -4 -4 -4 -3 -4 -4 -4 -5 -5 -4 -4 -4 -5 -5 -5 -5 -5 -5 -5 -5 -5 -5 -5 -6 -6 -6 -6 -6
-8 -7 -7 -7 -7 -7 -6 -6 -5 -7 -7 -5 -5 -5 -5 -5 -4 -4 -5 -5 -5 -4 -4 -4 -3 -4 -4 -4 -5 -5 -5 -5 -5 -5 -5 -5 -5 -5 -5 -5 -5 -5 -5 -5 -5 -5 -5 -6 -6
-8 -8 -8 -6 -7 -7 -7 -7 -6 -6 -8 -5 -5 -5 -4 -5 -4 -4 -5 -5 -5 -4 -4 -4 -3 -3 -4 -4 -4 -5 -5 -5 -5 -5 -5 -5 -5 -5 -5 -5 -5 -5 -5 -5 -5 -5 -5 -6 -6
-8 -8 -8 -8 -7 -8 -7 -7 -7 -6 -5 -6 -5 -4 -5 -5 -5 -5 -4 -5 -5 -5 -4 -4 -4 -4 -3 -4 -4 -5 -5 -5 -5 -5 -5 -5 -5 -5 -5 -5 -5 -5 -5 -5 -6 -6 -6 -6 -6
-8 -8 -8 -8 -8 -7 -7 -7 -7 -7 -6 -5 -6 -5 -5 -4 -4 -5 -5 -5 -4 -4 -5 -4 -4 -4 -4 -3 -4 -4 -4 -5 -5 -5 -5 -5 -5 -6 -5 -5 -5 -6 -5 -5 -5 -6 -6 -6 -7
-9 -9 -8 -8 -8 -8 -7 -7 -7 -7 -6 -6 -4 -5 -5 -4 -4 -5 -5 -5 -5 -4 -5 -4 -4 -4 -4 -4 -4 -4 -4 -4 -4 -4 -5 -5 -5 -5 -6 -6 -6 -6 -5 -6 -6 -5 -6 -6 -7
-9 -9 -8 -9 -8 -7 -7 -7 -7 -6 -6 -7 -6 -6 -5 -4 -4 -5 -5 -5 -6 -5 -5 -4 -4 -4 -4 -4 -4 -4 -4 -4 -4 -4 -4 -5 -5 -6 -6 -6 -6 -5 -5 -6 -6 -6 -6 -7 -7
-9 -9 -9 -9 -8 -7 -7 -7 -7 -6 -7 -6 -6 -6 -5 -6 -4 -4 -5 -5 -5 -5 -5 -5 -4 -4 -4 -4 -4 -4 -4 -4 -4 -4 -4 -5 -5 -5 -6 -6 -5 -5 -5 -6 -6 -6 -7 -7 -7
-9 -9 -9 -9 -8 -7 -7 -7 -6 -7 -6 -7 -7 -7 -7 -7 -6 -4 -4 -5 -5 -5 -5 -4 -4 -4 -4 -4 -4 -4 -4 -4 -4 -4 -4 -5 -5 -5 -6 -6 -6 -6 -6 -6 -6 -6 -7 -7 -7
-10 -9 -9 -9 -8 -8 -7 -8 -8 -7 -8 -6 -6 -7 -8 -8 -7 -5 -4 -4 -5 -5 -5 -4 -4 -4 -4 -4 -4 -4 -4 -4 -4 -4 -4 -5 -5 -5 -5 -6 -6 -6 -6 -6 -6 -7 -7 -7 -7
-10 -10 -9 -9 -8 -8 -7 -7 -6 -8 -7 -8 -8 -8 -7 -6 -5 -6 -6 -5 -5 -5 -5 -5 -5 -4 -4 -4 -4 -4 -4 -4 -4 -4 -5 -5 -5 -5 -5 -6 -6 -6 -6 -6 -6 -7 -7 -7 -7
-10 -10 -10 -10 -9 -8 -8 -7 -8 -7 -8 -8 -7 -8 -8 -6 -5 -6 -6 -5 -6 -6 -6 -6 -5 -5 -5 -4 -4 -4 -4 -4 -4 -4 -5 -5 -5 -5 -5 -5 -5 -6 -6 -6 -7 -7 -7 -7 -7
Height
5880 5880 5880 5881 5885 5883 5885 5887 5889 5890 5891 5892 5893 5893 5893 5892 5891 5893 5891 5890 5889 5889 5887 5886 5885 5884 5882 5880 5879 5877 5876 5874 5874 5874 5874 5877 5878 5877 5876 5876 5875 5875 5876 5877 5879 5881 5883 5885 5886
5883 5882 5883 5883 5884 5886 5887 5889 5891 5892 5892 5894 5894 5895 5895 5895 5894 5893 5893 5892 5891 5890 5889 5888 5887 5886 5884 5882 5880 5879 5877 5876 5875 5875 5877 5878 5879 5879 5878 5877 5876 5877 5878 5879 5880 5882 5884 5887 5889
5884 5884 5884 5881 5883 5888 5890 5891 5894 5895 5895 5895 5896 5898 5898 5897 5896 5895 5895 5894 5892 5892 5890 5889 5889 5887 5886 5884 5882 5880 5879 5877 5877 5878 5879 5880 5880 5880 5880 5879 5879 5879 5879 5879 5881 5882 5885 5887 5890
5883 5885 5883 5887 5888 5889 5891 5894 5897 5897 5897 5898 5898 5899 5899 5898 5897 5897 5897 5896 5894 5893 5892 5892 5890 5890 5888 5886 5884 5882 5881 5880 5881 5882 5882 5883 5884 5884 5883 5881 5880 5879 5880 5881 5881 5883 5886 5890 5893
5886 5886 5889 5889 5890 5891 5894 5897 5898 5898 5899 5899 5900 5901 5900 5900 5899 5899 5898 5898 5896 5895 5895 5895 5893 5891 5889 5887 5885 5884 5883 5883 5884 5884 5886 5887 5888 5888 5886 5884 5883 5883 5882 5884 5884 5886 5889 5892 5895
5889 5891 5891 5892 5891 5894 5895 5898 5899 5900 5900 5900 5901 5902 5901 5901 5901 5901 5901 5900 5899 5897 5897 5897 5895 5893 5891 5889 5887 5886 5886 5886 5887 5888 5889 5891 5892 5892 5890 5889 5888 5886 5885 5886 5887 5888 5890 5895 5899
5891 5890 5892 5895 5894 5896 5898 5901 5901 5902 5902 5903 5904 5903 5903 5903 5904 5903 5903 5902 5901 5900 5899 5899 5896 5895 5894 5892 5890 5889 5889 5890 5891 5892 5894 5896 5898 5898 5897 5895 5892 5892 5891 5890 5892 5892 5893 5899 5903
5892 5893 5894 5894 5895 5898 5900 5900 5904 5904 5904 5906 5906 5906 5906 5906 5906 5906 5905 5904 5903 5902 5902 5901 5899 5899 5897 5896 5895 5893 5890 5891 5895 5897 5900 5902 5903 5903 5902 5900 5897 5897 5897 5897 5898 5901 5900 5903 5906
5895 5895 5893 5890 5894 5898 5901 5902 5903 5905 5906 5908 5908 5907 5908 5908 5908 5908 5907 5907 5907 5905 5905 5903 5902 5902 5902 5901 5899 5897 5892 5893 5894 5897 5905 5907 5908 5906 5903 5902 5903 5902 5900 5904 5907 5908 5910 5911 5913
5896 5896 5893 5890 5897 5897 5900 5902 5903 5905 5906 5907 5908 5909 5909 5908 5910 5910 5910 5909 5909 5909 5908 5907 5905 5906 5906 5906 5906 5904 5902 5898 5896 5895 5908 5911 5910 5910 5909 5910 5907 5909 5909 5903 5909 5912 5915 5917 5918
5892 5893 5895 5896 5895 5898 5901 5901 5904 5906 5906 5907 5908 5910 5911 5911 5912 5912 5912 5911 5910 5911 5910 5911 5909 5910 5910 5911 5911 5910 5910 5908 5901 5904 5913 5915 5915 5913 5917 5914 5907 5914 5920 5917 5917 5916 5919 5918 5920
5893 5894 5897 5898 5897 5897 5898 5901 5904 5904 5905 5906 5907 5909 5911 5913 5914 5914 5914 5913 5912 5913 5913 5913 5914 5913 5914 5915 5915 5915 5915 5914 5915 5919 5916 5917 5918 5891 5924 5921 5887 5921 5928 5926 5925 5923 5925 5929 5925
5898 5896 5896 5894 5896 5900 5895 5899 5903 5903 5904 5903 5906 5908 5910 5913 5914 5915 5915 5915 5914 5914 5915 5916 5917 5916 5917 5918 5919 5918 5920 5918 5923 5924 5924 5919 5923 5925 5928 5929 5928 5905 5930 5930 5932 5929 5933 5934 5931
5896 5895 5896 5895 5898 5896 5870 5889 5899 5902 5906 5906 5907 5908 5911 5913 5915 5916 5917 5918 5917 5917 5917 5918 5919 5919 5920 5921 5923 5922 5921 5924 5925 5924 5923 5926 5930 5931 5930 5928 5925 5924 5930 5929 5933 5935 5936 5937 5934
5893 5894 5893 5895 5898 5895 5895 5893 5897 5899 5901 5905 5908 5909 5912 5913 5915 5917 5917 5918 5919 5919 5919 5920 5921 5922 5922 5924 5926 5926 5925 5923 5924 5926 5927 5928 5932 5931 5931 5930 5931 5933 5933 5934 5936 5938 5938 5937 5935
5894 5892 5895 5894 5893 5895 5897 5894 5895 5894 5899 5904 5906 5909 5911 5913 5914 5917 5918 5919 5920 5920 5921 5921 5923 5925 5924 5926 5928 5929 5930 5930 5931 5930 5931 5934 5936 5937 5938 5938 5939 5939 5938 5937 5938 5939 5938 5937 5939
5894 5898 5893 5888 5890 5887 5890 5889 5892 5895 5897 5903 5906 5908 5910 5911 5914 5916 5917 5918 5921 5921 5921 5923 5924 5927 5927 5927 5930 5932 5932 5935 5936 5937 5937 5938 5940 5942 5942 5943 5944 5944 5944 5943 5942 5942 5942 5942 5941
5898 5898 5889 5889 5889 5888 5882 5889 5893 5893 5896 5901 5904 5907 5908 5910 5913 5915 5917 5918 5920 5921 5922 5923 5925 5928 5930 5929 5931 5934 5935 5936 5938 5940 5942 5942 5942 5943 5943 5945 5945 5945 5945 5945 5944 5944 5943 5943 5943
5889 5892 5891 5890 5888 5890 5888 5885 5888 5892 5897 5902 5904 5904 5907 5909 5911 5913 5915 5917 5919 5922 5922 5924 5926 5928 5931 5932 5932 5935 5937 5938 5940 5942 5944 5944 5943 5944 5944 5945 5945 5945 5945 5945 5944 5943 5943 5943 5943
5888 5893 5886 5891 5887 5886 5884 5883 5892 5895 5896 5900 5901 5902 5905 5908 5909 5911 5913 5915 5918 5921 5923 5924 5927 5928 5931 5933 5933 5935 5937 5939 5940 5942 5945 5945 5945 5945 5945 5946 5947 5948 5947 5947 5946 5945 5944 5944 5944
5885 5891 5890 5890 5890 5889 5886 5885 5890 5898 5902 5902 5902 5903 5905 5907 5909 5909 5912 5914 5917 5920 5922 5924 5927 5929 5930 5933 5934 5935 5938 5940 5942 5944 5945 5946 5946 5946 5947 5948 5948 5950 5950 5950 5949 5949 5948 5947 5947
5881 5889 5891 5889 5884 5894 5895 5898 5896 5899 5903 5905 5905 5904 5904 5907 5908 5908 5911 5913 5915 5919 5921 5924 5927 5929 5931 5932 5934 5935 5938 5940 5943 5945 5946 5947 5948 5949 5949 5949 5950 5951 5952 5952 5952 5951 5950 5949 5949
5877 5885 5886 5890 5889 5895 5896 5899 5900 5897 5899 5903 5906 5904 5904 5907 5907 5907 5910 5912 5914 5918 5920 5922 5926 5928 5931 5933 5935 5936 5938 5941 5943 5946 5947 5948 5949 5950 5951 5951 5952 5953 5953 5954 5953 5952 5952 5952 5951
5873 5878 5880 5881 5885 5891 5896 5899 5896 5893 5896 5897 5902 5903 5906 5907 5907 5907 5910 5911 5912 5916 5919 5921 5924 5927 5930 5932 5935 5936 5938 5941 5944 5946 5948 5949 5950 5952 5952 5953 5953 5954 5955 5955 5954 5954 5954 5953 5952
5866 5872 5875 5877 5880 5887 5894 5896 5896 5893 5894 5898 5896 5899 5902 5903 5906 5908 5908 5910 5911 5914 5916 5919 5922 5925 5928 5930 5934 5937 5938 5941 5944 5946 5948 5950 5951 5952 5953 5955 5955 5955 5956 5956 5955 5955 5955 5955 5955
5860 5866 5870 5872 5878 5885 5889 5892 5897 5890 5891 5891 5894 5899 5900 5901 5903 5905 5907 5908 5910 5912 5913 5916 5919 5923 5926 5928 5932 5936 5938 5941 5943 5946 5948 5950 5952 5952 5954 5955 5956 5956 5957 5957 5957 5957 5957 5958 5958
5852 5856 5868 5872 5878 5881 5886 5891 5896 5886 5889 5893 5893 5895 5896 5885 5899 5902 5903 5906 5908 5910 5912 5914 5916 5920 5925 5925 5929 5933 5937 5940 5942 5945 5947 5949 5951 5953 5954 5955 5957 5957 5958 5957 5957 5958 5959 5960 5959
5842 5851 5858 5862 5866 5869 5877 5878 5883 5885 5887 5891 5892 5894 5894 5895 5896 5899 5901 5904 5906 5908 5909 5911 5913 5917 5920 5923 5926 5930 5934 5938 5941 5943 5946 5949 5950 5952 5953 5954 5956 5957 5958 5958 5957 5958 5960 5961 5960
5834 5840 5846 5859 5864 5866 5870 5874 5877 5871 5875 5881 5887 5884 5886 5887 5889 5897 5896 5902 5903 5905 5907 5907 5909 5912 5917 5921 5924 5928 5931 5935 5939 5942 5944 5947 5948 5950 5952 5953 5954 5956 5956 5957 5957 5958 5959 5960 5960
5827 5835 5841 5843 5850 5861 5867 5875 5868 5868 5868 5876 5879 5876 5875 5880 5885 5892 5896 5897 5900 5901 5902 5904 5905 5908 5912 5917 5920 5925 5928 5931 5935 5939 5942 5944 5947 5949 5950 5951 5953 5954 5955 5956 5956 5957 5957 5958 5958
Wind_Speed
9 11 16 21 20 14 12 13 16 12 10 5 5 4 5 4 7 11 11 11 12 14 13 12 12 14 13 11 13 12 10 9 7 6 6 7 8 9 9 8 3 5 6 7 7 7 9 10 10
12 14 14 14 19 11 13 13 13 11 9 5 4 4 5 6 7 11 11 12 13 13 12 12 13 15 13 11 11 11 11 9 10 10 11 8 9 9 8 10 10 8 7 9 9 8 9 12 13
10 11 11 12 13 11 10 14 11 10 9 5 4 4 5 6 7 10 11 12 13 13 13 12 13 15 12 10 11 13 12 10 12 11 12 13 13 13 13 14 12 11 13 13 12 10 11 13 15
11 11 11 11 8 12 10 11 10 10 6 3 2 4 4 4 6 10 10 11 12 12 13 12 13 16 11 12 11 12 12 14 16 18 18 18 17 17 17 15 15 14 12 11 11 9 12 14 16
13 10 11 10 13 11 11 10 10 9 4 5 4 3 3 3 6 9 11 11 11 12 13 12 15 15 12 13 11 12 12 14 16 16 18 20 21 21 22 20 21 19 17 14 10 9 11 16 17
15 10 5 8 10 10 8 8 10 8 7 5 3 3 3 3 5 8 11 10 11 14 14 14 16 16 16 14 13 13 11 13 13 16 19 22 23 28 32 26 24 22 19 15 14 11 12 18 17
17 22 12 9 9 10 8 7 9 7 4 5 2 3 3 2 5 8 10 9 11 14 14 15 17 17 16 16 15 14 12 13 14 18 19 22 24 28 34 33 31 28 28 26 26 25 29 26 23
12 5 0 11 9 13 11 7 3 4 4 3 1 2 3 2 5 8 8 9 12 13 14 16 18 17 17 19 18 17 11 11 19 21 23 24 23 25 30 37 41 41 43 39 36 32 34 36 34
8 12 15 13 14 14 13 11 8 7 4 4 1 3 4 2 4 6 7 9 11 12 13 15 16 17 19 23 22 28 30 25 26 26 25 23 23 24 25 28 33 37 41 41 40 38 35 34 31
8 12 16 7 11 15 11 12 10 6 5 4 2 3 4 3 2 5 6 8 9 11 11 13 16 17 20 25 29 31 33 30 33 31 23 22 23 22 22 26 29 31 32 36 35 29 31 26 28
9 6 17 25 8 13 17 16 12 11 8 7 7 3 4 4 2 3 5 6 9 9 10 11 15 16 21 23 23 21 26 28 24 28 24 23 23 23 22 21 31 31 27 29 31 31 26 29 26
5 2 3 12 25 16 14 18 9 15 12 8 7 6 7 5 2 2 3 4 7 8 9 10 14 16 20 21 20 20 24 23 22 24 24 24 20 13 18 20 20 30 16 20 26 28 24 22 22
15 1 2 6 23 23 29 16 10 15 11 7 7 8 9 7 3 1 2 3 5 7 9 8 13 17 18 20 20 18 21 18 21 9 24 22 21 22 20 20 22 29 23 23 24 26 18 17 18
10 4 4 8 8 16 10 15 17 12 10 10 6 9 9 8 4 1 1 2 3 5 8 7 11 15 17 18 20 17 16 19 19 21 22 21 20 21 20 20 20 21 17 18 17 17 14 17 13
12 11 4 9 10 15 11 10 22 15 10 9 7 7 9 7 5 4 2 1 2 4 7 7 10 14 17 16 17 18 16 15 16 19 20 17 15 18 19 20 19 15 12 14 13 12 8 10 9
6 12 6 8 12 13 27 26 26 18 12 11 10 8 8 8 7 6 6 4 3 4 5 7 10 12 15 16 15 16 17 16 15 15 16 14 12 14 13 13 12 11 10 10 8 8 9 9 8
5 16 9 19 16 21 25 17 24 13 9 4 8 10 10 8 8 7 8 7 5 5 6 6 9 13 14 15 14 13 16 15 16 13 14 12 12 12 10 9 9 8 6 5 6 7 5 3 4
2 17 33 36 22 19 17 13 3 9 5 4 3 6 7 9 8 9 8 9 8 7 7 8 7 13 15 15 14 12 13 13 13 11 11 11 9 7 5 3 4 3 3 5 5 5 4 2 2
15 13 22 17 16 23 13 11 7 12 3 3 2 4 4 7 9 10 10 11 10 8 10 8 7 10 14 15 15 13 13 13 12 10 8 7 6 5 3 4 5 6 7 8 8 6 5 3 2
15 13 19 14 10 14 8 11 16 11 5 10 2 2 3 4 7 9 11 14 13 11 10 10 8 8 11 14 15 14 13 12 12 10 6 4 6 6 8 10 10 10 11 13 17 18 16 14 13
22 19 24 17 9 7 9 17 9 9 4 12 6 3 2 3 6 8 11 14 15 15 13 12 11 9 10 12 14 14 14 14 12 10 8 7 8 9 10 10 10 11 10 13 17 17 17 18 19
24 19 27 12 13 4 9 7 19 11 5 9 12 3 1 3 4 5 8 9 12 17 15 14 12 12 10 12 14 15 15 14 12 10 9 9 8 9 9 9 8 9 11 12 15 17 18 18 18
28 21 21 21 13 17 13 8 20 28 19 12 13 9 3 4 4 2 4 6 8 14 18 16 15 14 13 12 13 14 14 13 12 11 11 10 9 8 8 9 9 9 8 10 15 16 19 23 26
28 26 21 30 22 22 18 12 16 19 15 14 15 12 9 8 3 1 3 1 4 9 16 16 16 16 16 13 14 15 15 15 13 12 12 11 11 9 6 7 7 7 8 11 13 16 21 24 27
35 29 31 20 24 24 18 20 18 23 11 15 18 13 14 11 9 6 4 4 2 6 10 17 18 18 17 16 14 16 16 16 15 14 13 12 11 8 6 4 5 7 9 10 12 15 19 21 22
33 34 35 27 23 20 21 23 18 31 28 5 12 12 18 20 17 13 8 6 5 6 8 14 20 21 19 17 17 16 19 18 19 17 16 14 12 11 9 8 7 7 8 9 10 12 16 18 18
41 39 39 28 23 23 23 21 22 30 28 18 17 20 25 12 14 15 11 7 5 8 10 12 20 23 22 20 19 19 19 19 19 19 17 17 15 14 13 11 9 7 6 8 9 9 11 12 13
47 33 36 39 35 35 29 25 34 33 30 32 31 29 23 26 27 24 15 12 7 10 11 11 16 25 25 22 21 21 20 21 21 20 20 19 17 16 15 13 11 8 7 6 8 8 7 6 7
41 44 36 39 35 34 26 25 18 35 35 23 22 23 32 37 36 25 25 16 11 10 12 14 12 23 26 24 22 22 22 22 23 22 22 21 19 18 15 14 13 10 8 7 7 8 8 6 2
40 41 41 41 46 39 31 22 17 20 1 21 26 39 36 37 38 30 27 24 14 13 12 13 13 20 25 26 25 23 22 23 23 24 22 21 20 19 16 13 12 11 10 9 8 9 9 9 6
Wind_Direction
116 120 123 136 149 150 159 167 157 152 162 144 140 128 112 90 75 78 62 53 49 43 38 42 36 37 41 54 48 44 43 51 75 71 118 109 75 57 59 54 71 153 152 151 155 140 115 106 102
125 126 146 154 148 163 175 165 165 149 152 158 142 114 107 90 72 68 51 45 46 43 40 42 37 37 41 54 56 40 36 58 76 77 104 83 59 65 54 48 61 89 111 128 140 138 120 112 105
166 169 162 162 157 164 181 163 159 152 147 149 147 119 95 78 66 60 47 40 46 39 44 43 40 36 46 55 57 41 44 71 82 84 77 83 64 62 61 55 66 94 110 121 128 128 128 122 109
151 182 199 162 124 166 178 172 161 163 170 142 132 123 113 99 65 54 45 42 46 40 46 47 43 44 56 53 50 49 60 78 81 86 89 78 69 68 57 56 72 89 114 124 125 121 122 129 116
116 147 114 128 176 196 181 188 178 184 172 153 158 140 115 84 59 48 36 42 42 49 51 48 45 49 54 59 59 66 67 82 90 94 89 84 80 68 60 71 83 80 85 93 113 121 132 129 129
127 142 143 167 201 195 187 178 175 172 180 170 142 159 126 91 49 45 39 44 49 55 54 49 52 56 55 55 57 70 79 89 98 93 92 90 81 72 66 78 81 76 80 92 94 109 136 123 125
76 143 150 213 204 205 193 195 204 178 205 200 114 171 151 81 42 42 45 49 57 57 55 48 57 60 61 60 62 73 86 92 100 100 97 92 81 77 72 77 77 83 83 93 96 95 103 113 113
162 86 266 215 225 212 195 192 152 213 225 202 146 209 166 107 51 42 48 48 62 58 54 52 64 68 67 71 72 74 75 102 102 106 99 92 83 79 77 81 87 90 87 85 91 101 105 111 113
173 195 190 195 195 215 222 213 218 230 232 204 65 197 183 143 70 45 44 54 65 58 53 60 72 80 78 81 81 81 72 107 122 110 96 87 79 85 90 90 88 91 91 90 94 96 97 96 94
224 220 240 162 206 219 213 228 222 201 206 210 203 192 185 168 56 49 30 58 70 63 55 70 85 93 92 95 88 81 84 100 125 92 94 92 90 89 94 97 104 101 99 101 99 92 98 98 96
250 196 217 219 141 206 216 230 238 213 225 245 203 210 205 195 42 50 29 54 76 67 62 78 95 101 100 105 97 86 88 93 82 110 105 100 92 88 91 98 109 103 95 92 96 99 98 103 102
292 71 208 234 227 219 212 231 221 233 230 223 207 210 206 201 80 25 31 53 79 74 70 88 108 111 111 112 101 101 93 99 108 105 106 103 94 47 97 94 61 107 100 97 99 99 99 99 97
292 78 323 287 229 232 230 211 212 231 228 199 195 191 195 199 168 352 15 22 90 90 81 97 119 121 116 112 112 101 102 101 94 115 103 90 91 92 110 112 96 87 98 97 97 88 92 103 100
247 279 218 67 204 243 198 166 225 219 217 228 202 184 201 200 196 192 1 356 86 104 95 106 129 133 125 118 116 111 103 109 104 96 89 91 97 98 99 94 83 81 91 88 88 88 105 85 87
240 251 172 89 7 250 231 183 206 231 221 227 210 203 225 220 194 205 190 205 98 113 109 111 143 145 135 131 127 122 113 103 97 97 88 89 93 82 83 82 86 83 71 73 77 82 82 81 66
191 284 221 177 192 195 202 232 214 200 195 218 215 215 224 226 195 227 217 194 161 141 138 119 148 162 151 142 137 132 129 121 113 101 93 97 97 95 89 96 97 87 74 62 60 69 61 58 60
164 249 261 210 215 191 209 211 209 199 157 209 223 211 211 226 220 224 223 203 192 166 160 139 152 168 167 155 151 147 138 133 129 121 117 113 119 122 114 114 116 111 106 86 67 58 67 67 63
211 235 266 281 226 241 190 223 188 180 117 155 197 216 222 245 244 234 225 214 198 181 175 165 158 171 178 165 162 158 151 141 137 135 124 126 132 134 135 155 151 138 117 75 59 49 43 46 69
229 270 260 310 292 256 202 159 220 173 29 148 163 151 199 240 243 241 226 211 208 197 179 180 171 171 187 181 170 172 164 151 150 150 147 139 137 133 130 109 95 94 77 57 40 41 56 37 11
231 245 289 285 292 280 301 359 340 4 114 316 42 124 163 218 225 227 220 208 202 196 193 186 190 174 186 195 180 182 177 170 167 166 155 141 123 112 110 105 97 88 78 69 68 69 73 72 69
224 233 251 279 348 352 321 318 354 344 23 275 315 243 175 215 205 215 226 223 203 201 196 193 194 194 180 198 196 179 187 186 183 173 166 145 129 122 112 98 87 87 88 88 85 80 80 77 73
218 226 231 270 300 349 221 227 261 279 255 280 293 255 187 219 213 203 228 223 217 210 204 194 198 209 195 197 203 193 192 184 187 185 168 155 144 132 116 104 97 99 98 94 88 84 86 82 76
211 218 246 233 265 231 268 197 251 227 249 201 264 271 269 242 210 224 242 253 233 225 213 201 201 205 212 206 205 200 194 193 187 182 178 165 153 149 133 125 116 106 98 92 89 85 86 86 86
211 229 229 228 219 234 231 227 257 289 301 286 261 272 261 238 230 267 292 315 276 233 216 211 204 209 212 210 216 210 198 195 191 192 187 176 168 165 156 140 124 113 107 103 100 89 85 81 78
213 220 225 238 221 231 233 237 248 260 179 214 261 265 263 258 238 231 254 264 251 251 218 212 210 210 214 210 217 218 209 197 195 197 195 189 183 187 194 177 149 136 124 114 106 99 88 83 85
220 222 219 234 229 230 234 222 237 270 272 152 203 242 270 225 236 234 217 245 261 258 240 211 214 214 212 208 213 218 214 208 203 199 203 204 204 200 203 200 178 158 139 116 106 102 94 94 89
203 222 219 228 234 237 223 245 216 239 261 248 248 254 242 313 266 243 234 228 246 271 264 232 217 215 217 207 212 214 219 218 213 209 209 212 211 211 203 204 193 177 158 130 114 114 112 105 93
212 218 215 219 219 233 225 233 210 217 256 257 249 248 227 225 237 260 248 233 237 263 270 280 231 218 216 213 211 215 219 219 215 210 213 215 215 211 208 202 204 198 185 164 148 145 146 125 95
212 220 211 218 230 232 228 228 255 220 214 220 215 227 231 233 248 243 254 233 237 251 266 284 257 221 217 218 213 217 218 220 221 216 217 218 219 217 216 215 212 213 208 205 190 177 174 180 159
212 218 215 218 206 224 221 226 272 243 211 187 226 223 220 236 246 245 249 252 241 243 254 274 276 219 213 219 217 217 220 220 221 219 218 218 225 223 218 220 221 222 222 226 223 209 201 195 203